This demonstration page uses our WeatherBlox Daily Observations layout. Learn more.

Left ArrowRight Arrow

Hourly Observations for January 6, 2015

Temp ( °F °C ) Dew Point ( °F °C ) Humidity (%) Winds ( mph kmh ) Pressure ( in mb ) Visibility ( mi km ) Precip ( " mm )
12:53 am 00:53 Clear 31 -0.6 24 -4.4 76 76 Calm 30.40 1030 10 16 0.00 0.00
1:53 am 01:53 Clear 30 -1.1 25 -3.9 82 82 Calm 30.40 1029 10 16 0.00 0.00
2:53 am 02:53 Clear 29 -1.7 26 -3.3 89 89 Calm 30.39 1029 10 16 0.00 0.00
3:53 am 03:53 Clear 29 -1.7 26 -3.3 89 89 Calm 30.39 1029 10 16 0.00 0.00
4:53 am 04:53 Clear 28 -2.2 25 -3.9 88 88 Calm 30.39 1029 10 16 0.00 0.00
5:53 am 05:53 Clear 28 -2.2 24 -4.4 85 85 Calm 30.38 1029 10 16 0.00 0.00
6:53 am 06:53 Clear 28 -2.2 24 -4.4 85 85 Calm 30.38 1029 10 16 0.00 0.00
7:53 am 07:53 Sunny 28 -2.2 25 -3.9 88 88 Calm 30.38 1029 9 14 0.00 0.00
8:53 am 08:53 Sunny 31 -0.6 26 -3.3 82 82 Calm 30.39 1029 8 13 0.00 0.00
9:53 am 09:53 Sunny 38 3.3 27 -2.8 65 65 SSW 3 6 30.38 1029 10 16 0.00 0.00
10:53 am 10:53 Sunny 47 8.3 25 -3.9 42 42 WNW 14 22 30.35 1028 10 16 0.00 0.00
11:53 am 11:53 Sunny 49 9.4 24 -4.4 38 38 NW 14 22 30.32 1027 10 16 0.00 0.00
12:53 pm 12:53 Sunny 50 10 24 -4.4 36 36 WNW 16 26 30.29 1026 10 16 0.00 0.00
1:53 pm 13:53 Sunny 51 10.6 25 -3.9 36 36 NW 15 24 30.27 1025 10 16 0.00 0.00
2:53 pm 14:53 Sunny 51 10.6 27 -2.8 39 39 W 10 17 30.26 1025 10 16 0.00 0.00
3:53 pm 15:53 Sunny 53 11.7 27 -2.8 37 37 W 10 17 30.24 1024 10 16 0.00 0.00
4:53 pm 16:53 Sunny 52 11.1 28 -2.2 40 40 W 8 13 30.24 1024 10 16 0.00 0.00
5:53 pm 17:53 Clear 50 10 27 -2.8 41 41 WNW 9 15 30.24 1024 10 16 0.00 0.00
6:53 pm 18:53 Clear 47 8.3 28 -2.2 48 48 NW 6 9 30.25 1024 10 16 0.00 0.00
7:53 pm 19:53 Clear 45 7.2 27 -2.8 49 49 WNW 7 11 30.26 1025 10 16 0.00 0.00
8:53 pm 20:53 Clear 44 6.7 27 -2.8 51 51 W 7 11 30.25 1024 10 16 0.00 0.00
9:53 pm 21:53 Clear 42 5.6 27 -2.8 55 55 NNW 5 7 30.25 1024 10 16 0.00 0.00
10:53 pm 22:53 Clear 41 5 27 -2.8 57 57 NW 7 11 30.24 1024 10 16 0.00 0.00
11:53 pm 23:53 Clear 40 4.4 26 -3.3 58 58 NNW 6 9 30.24 1024 10 16 0.00 0.00

Powered by AerisWeather